GW0795 Weather Reports


time (UTC)temp
C
wind
direction
speed
KPH
gust
KPH
rain 1hr
cm
rain 24hr
cm
rain mn
cm
humidity
%
barometer
mb
20260506211512 13 180 0.0 4.8 0.00 0.00 0.00 75 1021.1
20260506211006 13 180 0.0 4.8 0.00 0.00 0.00 76 1021.1
20260506210515 13 229 0.0 6.4 0.00 0.00 0.00 77 1021.1
20260506210043 13 209 0.0 6.4 0.00 0.00 0.00 76 1021.1
20260506205509 13 238 0.0 6.4 0.00 0.00 0.00 76 1021.0
20260506205006 13 186 1.6 4.8 0.00 0.00 0.00 76 1021.0
20260506204524 13 183 1.6 8.0 0.00 0.00 0.00 76 1021.0
20260506204004 13 184 0.0 8.0 0.00 0.00 0.00 77 1021.1
20260506203503 13 218 3.2 8.0 0.00 0.00 0.00 77 1021.1
20260506203009 13 24 1.6 4.8 0.00 0.00 0.00 76 1021.0
20260506202503 13 253 0.0 4.8 0.00 0.00 0.00 77 1021.0
20260506202007 13 175 1.6 4.8 0.00 0.00 0.00 76 1021.0
20260506201519 13 229 1.6 6.4 0.00 0.00 0.00 77 1020.9
20260506201007 12 179 0.0 6.4 0.00 0.00 0.00 77 1021.0
20260506200507 13 205 0.0 6.4 0.00 0.00 0.00 78 1020.9
20260506200016 12 101 1.6 6.4 0.00 0.00 0.00 78 1020.9
20260506195507 12 213 1.6 6.4 0.00 0.00 0.00 78 1020.9
20260506195008 12 212 1.6 3.2 0.00 0.00 0.00 78 1020.8
20260506194523 12 165 0.0 6.4 0.00 0.00 0.00 78 1020.8
20260506194008 12 215 1.6 6.4 0.00 0.00 0.00 79 1020.7
20260506193511 12 204 3.2 6.4 0.00 0.00 0.00 79 1020.7
20260506193033 12 117 0.0 6.4 0.00 0.00 0.00 80 1020.7
20260506192503 12 205 1.6 8.0 0.00 0.00 0.00 79 1020.7
20260506192006 12 221 3.2 8.0 0.00 0.00 0.00 80 1020.7
20260506191512 12 221 0.0 6.4 0.00 0.00 0.00 81 1020.7
20260506191004 12 190 1.6 6.4 0.00 0.00 0.00 80 1020.7
20260506190509 12 195 1.6 6.4 0.00 0.00 0.00 81 1020.7
20260506190017 12 188 3.2 6.4 0.00 0.00 0.00 81 1020.7
20260506185510 12 161 1.6 6.4 0.00 0.00 0.00 82 1020.7
20260506185007 12 132 1.6 4.8 0.00 0.00 0.00 81 1020.7
20260506184527 12 199 0.0 8.0 0.00 0.00 0.00 82 1020.7
20260506184009 12 198 0.0 8.0 0.00 0.00 0.00 84 1020.7
20260506183512 11 209 1.6 6.4 0.00 0.00 0.00 83 1020.7
20260506183024 11 197 0.0 4.8 0.00 0.00 0.00 83 1020.7
20260506182511 12 190 0.0 3.2 0.00 0.00 0.00 84 1020.8
20260506182009 12 198 1.6 4.8 0.00 0.00 0.00 85 1020.8
20260506181536 11 190 1.6 4.8 0.00 0.00 0.00 84 1020.6
20260506181004 11 173 1.6 4.8 0.00 0.00 0.00 85 1020.5
20260506180504 11 167 0.0 9.7 0.00 0.00 0.00 86 1020.5
20260506180014 11 198 1.6 9.7 0.00 0.00 0.00 87 1020.5
20260506175505 11 191 1.6 6.4 0.00 0.00 0.00 86 1020.6
20260506175005 11 223 0.0 4.8 0.00 0.00 0.00 87 1020.5
20260506174519 11 228 0.0 6.4 0.00 0.00 0.00 88 1020.5
20260506174006 11 209 3.2 9.7 0.00 0.00 0.00 88 1020.5
20260506173509 11 201 1.6 9.7 0.00 0.00 0.00 88 1020.7
20260506173020 11 201 0.0 9.7 0.00 0.00 0.00 88 1020.5
20260506172512 11 220 1.6 8.0 0.00 0.00 0.00 88 1020.6
20260506172011 11 230 0.0 4.8 0.00 0.00 0.00 89 1020.6
20260506171529 11 188 0.0 6.4 0.00 0.00 0.00 89 1020.7
20260506171011 11 180 1.6 8.0 0.00 0.00 0.00 89 1020.6
20260506170512 11 170 0.0 8.0 0.00 0.00 0.00 90 1020.5
20260506170029 11 215 3.2 8.0 0.00 0.00 0.00 89 1020.5
20260506165505 11 198 0.0 8.0 0.00 0.00 0.00 90 1020.5
20260506165004 11 176 1.6 4.8 0.00 0.00 0.00 91 1020.5
20260506164535 11 184 1.6 8.0 0.00 0.00 0.00 91 1020.4
20260506164005 11 159 0.0 8.0 0.00 0.00 0.00 92 1020.3
20260506163507 11 200 3.2 8.0 0.00 0.00 0.00 92 1020.2
20260506163022 10 192 0.0 4.8 0.00 0.00 0.00 92 1020.1
20260506162510 10 200 1.6 4.8 0.00 0.00 0.00 92 1020.0
20260506162008 10 168 1.6 9.7 0.00 0.00 0.00 92 1020.0
20260506161524 10 187 3.2 8.0 0.00 0.00 0.00 92 1019.9
20260506161010 10 207 0.0 8.0 0.00 0.00 0.00 92 1019.8
20260506160510 10 200 1.6 4.8 0.00 0.00 0.00 92 1019.9
20260506160030 10 191 0.0 8.0 0.00 0.00 0.00 92 1020.0
20260506155509 10 213 0.0 6.4 0.00 0.00 0.00 92 1020.0
20260506155010 10 190 3.2 6.4 0.00 0.00 0.00 92 1020.1
20260506154529 10 216 0.0 3.2 0.00 0.00 0.00 92 1020.2
20260506154008 10 245 0.0 3.2 0.00 0.00 0.00 92 1020.3
20260506153511 10 88 0.0 3.2 0.00 0.00 0.00 92 1020.3
20260506153014 10 209 0.0 3.2 0.00 0.00 0.00 92 1020.2
20260506152508 10 177 1.6 3.2 0.00 0.00 0.00 91 1020.1
20260506152009 10 191 0.0 3.2 0.00 0.00 0.00 92 1020.0
20260506151502 10 190 0.0 6.4 0.00 0.00 0.00 92 1019.8
20260506151001 10 195 1.6 8.0 0.00 0.00 0.00 91 1019.7
20260506150502 10 196 3.2 8.0 0.00 0.00 0.00 91 1019.8
20260506150005 10 218 0.0 6.4 0.00 0.00 0.00 91 1019.9
20260506145505 10 184 0.0 3.2 0.00 0.00 0.00 92 1019.9
20260506145008 10 302 0.0 3.2 0.00 0.00 0.00 92 1020.0
20260506144521 10 36 0.0 3.2 0.00 0.00 0.00 92 1020.0
20260506144008 10 276 0.0 8.0 0.00 0.00 0.00 91 1020.0
20260506143506 10 255 0.0 8.0 0.00 0.00 0.00 91 1019.9
20260506143017 10 252 0.0 4.8 0.00 0.00 0.00 91 1019.7
20260506142505 10 222 0.0 4.8 0.00 0.00 0.00 91 1019.8
20260506142009 10 211 0.0 8.0 0.00 0.00 0.00 91 1019.6
20260506141528 10 200 1.6 8.0 0.00 0.00 0.00 91 1019.5
20260506141015 10 201 1.6 3.2 0.00 0.00 0.00 90 1019.7
20260506140502 10 196 0.0 3.2 0.00 0.00 0.00 90 1019.7
20260506140006 10 188 0.0 4.8 0.00 0.00 0.00 90 1019.7
20260506135503 10 180 0.0 8.0 0.00 0.00 0.00 90 1019.8
20260506135003 10 180 0.0 8.0 0.00 0.00 0.00 90 1019.6
20260506134508 11 105 1.6 3.2 0.00 0.00 0.00 90 1019.5
20260506134003 11 94 0.0 3.2 0.00 0.00 0.00 90 1019.7
20260506133504 11 249 0.0 3.2 0.00 0.00 0.00 90 1019.6
20260506133016 11 209 0.0 4.8 0.00 0.00 0.00 89 1019.4
20260506132507 11 198 0.0 4.8 0.00 0.00 0.00 89 1019.5
20260506132007 11 201 0.0 3.2 0.00 0.00 0.00 89 1019.5
20260506131520 11 199 0.0 8.0 0.00 0.00 0.00 89 1019.3
20260506131006 10 185 1.6 8.0 0.00 0.00 0.00 89 1019.0
20260506130508 11 181 1.6 8.0 0.00 0.00 0.00 89 1019.2
20260506130024 11 200 0.0 4.8 0.00 0.00 0.00 89 1019.2
20260506125510 11 217 0.0 3.2 0.00 0.00 0.00 89 1019.2
20260506125002 11 202 0.0 3.2 0.00 0.00 0.00 89 1019.2
20260506124508 11 202 1.6 3.2 0.00 0.00 0.00 89 1019.1
20260506124006 11 157 0.0 3.2 0.00 0.00 0.00 89 1019.0
20260506123503 11 157 0.0 1.6 0.00 0.00 0.00 89 1019.0
20260506123014 11 185 0.0 0.0 0.00 0.00 0.00 89 1019.0
20260506122505 11 185 0.0 0.0 0.00 0.00 0.00 89 1019.0
20260506122012 11 185 0.0 0.0 0.00 0.00 0.00 89 1018.9
20260506121519 11 179 0.0 1.6 0.00 0.00 0.00 89 1018.8
20260506121009 11 194 0.0 3.2 0.00 0.00 0.00 89 1018.8
20260506120507 11 202 0.0 3.2 0.00 0.00 0.00 89 1018.8
20260506120043 11 186 1.6 6.4 0.00 0.00 0.00 89 1018.8
20260506115512 11 246 0.0 6.4 0.00 0.00 0.00 89 1018.7
20260506115007 11 199 0.0 3.2 0.00 0.00 0.00 89 1018.7
20260506114526 11 200 0.0 3.2 0.00 0.00 0.00 89 1018.6
20260506114012 11 174 0.0 3.2 0.00 0.00 0.00 89 1018.6
20260506113510 11 184 0.0 0.0 0.00 0.00 0.00 89 1018.6
20260506113012 11 199 0.0 3.2 0.00 0.00 0.00 89 1018.6
20260506112504 11 199 0.0 3.2 0.00 0.00 0.00 88 1018.6
20260506112007 11 185 0.0 3.2 0.00 0.00 0.00 88 1018.6
20260506111515 11 180 1.6 3.2 0.00 0.00 0.00 88 1018.6
20260506111003 11 194 0.0 3.2 0.00 0.00 0.00 88 1018.6
20260506110507 11 194 0.0 3.2 0.00 0.00 0.00 88 1018.6
20260506110024 11 212 1.6 3.2 0.00 0.00 0.00 88 1018.5
20260506105508 11 229 0.0 3.2 0.00 0.00 0.00 88 1018.5
20260506105006 11 213 0.0 4.8 0.00 0.00 0.00 88 1018.4
20260506104536 11 213 1.6 8.0 0.00 0.00 0.00 88 1018.4
20260506104011 11 216 3.2 8.0 0.00 0.00 0.00 87 1018.4
20260506103508 11 202 1.6 4.8 0.00 0.00 0.00 88 1018.3
20260506103038 11 214 1.6 4.8 0.00 0.00 0.00 87 1018.3
20260506102516 11 196 0.0 6.4 0.00 0.00 0.00 88 1018.3
20260506102007 11 196 0.0 6.4 0.00 0.00 0.00 88 1018.3
20260506101513 11 198 1.6 4.8 0.00 0.00 0.00 87 1018.2
20260506101009 11 214 0.0 1.6 0.00 0.00 0.00 88 1018.2
20260506100506 11 214 0.0 1.6 0.00 0.00 0.00 88 1018.1
20260506100015 11 227 0.0 4.8 0.00 0.00 0.00 88 1018.1
20260506095505 11 227 0.0 4.8 0.00 0.00 0.00 88 1018.1
20260506095009 11 227 0.0 4.8 0.00 0.00 0.00 87 1018.0
20260506094520 11 215 0.0 0.0 0.00 0.00 0.00 88 1018.0
20260506094012 11 215 0.0 0.0 0.00 0.00 0.00 88 1018.0
20260506093510 11 215 0.0 3.2 0.00 0.00 0.00 88 1018.1
20260506093024 11 215 0.0 6.4 0.00 0.00 0.00 88 1018.0
20260506092508 11 216 1.6 6.4 0.00 0.00 0.00 88 1018.0
20260506092013 11 202 0.0 1.6 0.00 0.00 0.00 88 1018.0
20260506091528 11 240 0.0 3.2 0.00 0.00 0.00 88 1018.0
20260506091007 11 217 0.0 3.2 0.00 0.00 0.00 88 1017.9
20260506090503 11 221 0.0 3.2 0.00 0.00 0.00 88 1017.9
20260506090015 11 208 0.0 0.0 0.00 0.00 0.00 88 1017.9
20260506085507 11 208 0.0 0.0 0.00 0.00 0.00 88 1017.8
20260506085004 11 208 0.0 0.0 0.00 0.00 0.00 88 1017.8
20260506084539 11 208 0.0 3.2 0.00 0.00 0.00 88 1017.7
20260506084012 11 208 0.0 4.8 0.00 0.00 0.00 88 1017.7
20260506083508 11 207 0.0 6.4 0.00 0.00 0.00 87 1017.6
20260506082500 11 195 0.0 6.4 0.00 0.00 0.00 88 1017.6
20260506082004 11 186 1.6 8.0 0.00 0.00 0.00 88 1017.6
20260506081508 10 203 1.6 8.0 0.00 0.00 0.00 88 1017.6
20260506081008 10 240 1.6 6.4 0.00 0.00 0.00 88 1017.6
20260506080504 10 198 0.0 6.4 0.00 0.00 0.00 88 1017.5
20260506073505 11 208 0.0 3.2 0.00 0.00 0.00 88 1017.3
20260506073002 11 209 0.0 3.2 0.00 0.00 0.00 88 1017.4
20260506072502 11 209 0.0 3.2 0.00 0.00 0.00 88 1017.3
20260506072001 11 209 0.0 3.2 0.00 0.00 0.00 87 1017.3
20260506071505 11 209 0.0 3.2 0.00 0.00 0.00 87 1017.3
20260506071004 11 189 0.0 0.0 0.00 0.00 0.00 87 1017.2
20260506070504 11 184 0.0 0.0 0.00 0.00 0.00 87 1017.1
20260506062508 11 193 0.0 0.0 0.00 0.00 0.00 87 1016.8
20260506062010 11 195 0.0 1.6 0.00 0.00 0.00 86 1016.7
20260506061504 11 196 0.0 3.2 0.00 0.00 0.00 87 1016.6
20260506061004 11 200 0.0 3.2 0.00 0.00 0.00 86 1016.5
20260506060504 12 200 0.0 3.2 0.00 0.00 0.00 86 1016.5
20260506051010 12 185 0.0 3.2 0.00 0.00 0.00 83 1016.0
20260506050507 13 172 0.0 3.2 0.00 0.00 0.00 83 1016.0
20260506045005 13 219 0.0 4.8 0.00 0.00 0.00 83 1015.9
20260506044513 13 200 0.0 4.8 0.00 0.00 0.00 83 1015.9
20260506044006 13 190 0.0 4.8 0.00 0.00 0.00 83 1015.9
20260506043508 13 205 0.0 4.8 0.00 0.00 0.00 84 1015.9
20260506043014 13 211 0.0 1.6 0.00 0.00 0.00 83 1015.9
20260506042508 13 211 0.0 1.6 0.00 0.00 0.00 83 1015.9
20260506042008 13 212 0.0 0.0 0.00 0.00 0.00 83 1015.9
20260506041520 13 212 0.0 0.0 0.00 0.00 0.00 83 1015.9
20260506041009 13 212 0.0 0.0 0.00 0.00 0.00 82 1015.9
20260506040510 13 212 0.0 0.0 0.00 0.00 0.00 82 1015.8
20260506040023 13 212 0.0 0.0 0.00 0.00 0.00 82 1015.8
20260506035508 13 212 0.0 0.0 0.00 0.00 0.00 81 1015.7
20260506035008 13 212 0.0 0.0 0.00 0.00 0.00 81 1015.7
20260506034529 13 212 0.0 0.0 0.00 0.00 0.00 82 1015.7
20260506034004 13 212 0.0 0.0 0.00 0.00 0.00 81 1015.6
20260506033504 13 212 0.0 0.0 0.00 0.00 0.00 80 1015.6
20260506033014 14 212 0.0 0.0 0.00 0.00 0.00 80 1015.5
20260506032504 14 212 0.0 0.0 0.00 0.00 0.00 79 1015.6
20260506032010 14 212 0.0 0.0 0.00 0.00 0.00 80 1015.6
20260506031516 14 212 0.0 0.0 0.00 0.00 0.00 79 1015.4
20260506031008 14 212 0.0 0.0 0.00 0.00 0.00 78 1015.4
20260506030512 15 212 0.0 0.0 0.00 0.00 0.00 78 1015.4
20260506030020 15 212 0.0 4.8 0.00 0.00 0.00 78 1015.3
20260506025511 15 212 0.0 4.8 0.00 0.00 0.00 77 1015.3
20260506025010 15 173 0.0 3.2 0.00 0.00 0.00 77 1015.3
20260506024524 15 143 0.0 4.8 0.00 0.00 0.00 77 1015.2
20260506024015 15 156 0.0 6.4 0.00 0.00 0.00 76 1015.2
20260506023513 15 171 1.6 6.4 0.00 0.00 0.00 75 1015.2
20260506023045 15 142 0.0 3.2 0.00 0.00 0.00 75 1015.4
20260506022506 15 185 0.0 3.2 0.00 0.00 0.00 75 1015.3
20260506022003 15 174 0.0 4.8 0.00 0.00 0.00 75 1015.3
20260506021521 16 174 1.6 3.2 0.00 0.00 0.00 74 1015.3
20260506021011 16 149 0.0 3.2 0.00 0.00 0.00 73 1015.3
20260506020508 16 130 1.6 3.2 0.00 0.00 0.00 72 1015.3
20260506020025 16 213 1.6 4.8 0.00 0.00 0.00 72 1015.3
20260506015501 16 188 0.0 4.8 0.00 0.00 0.00 72 1015.3
20260506015004 16 242 0.0 4.8 0.00 0.00 0.00 71 1015.3
20260506014504 16 156 1.6 11.3 0.00 0.00 0.00 71 1015.3
20260506014004 16 207 0.0 11.3 0.00 0.00 0.00 72 1015.3
20260506013504 16 200 1.6 8.0 0.00 0.00 0.00 71 1015.3
20260506013007 16 142 0.0 6.4 0.00 0.00 0.00 72 1015.3
20260506012503 16 178 0.0 6.4 0.00 0.00 0.00 72 1015.3
20260506012008 16 194 0.0 6.4 0.00 0.00 0.00 73 1015.3
20260506011514 16 165 1.6 6.4 0.00 0.00 0.00 71 1015.3
20260506011004 16 215 1.6 8.0 0.00 0.00 0.00 73 1015.5
20260506010504 16 157 4.8 8.0 0.00 0.00 0.00 72 1015.4
20260506010016 16 166 3.2 8.0 0.00 0.00 0.00 71 1015.4
20260506005500 16 166 0.0 4.8 0.00 0.00 0.00 71 1015.3
20260506005000 16 172 1.6 6.4 0.00 0.00 0.00 72 1015.4
20260506004505 16 130 1.6 6.4 0.00 0.00 0.00 72 1015.4
20260506004006 16 294 3.2 6.4 0.00 0.00 0.00 71 1015.5
20260506003507 16 277 3.2 4.8 0.00 0.00 0.00 71 1015.6
20260506003004 16 295 1.6 8.0 0.00 0.00 0.00 71 1015.6
20260506002503 16 308 0.0 8.0 0.00 0.00 0.00 72 1015.6
20260506002003 16 333 3.2 9.7 0.00 0.00 0.00 71 1015.6
20260506001509 16 302 1.6 11.3 0.00 0.00 0.00 72 1015.6
20260506001004 16 281 3.2 11.3 0.00 0.00 0.00 72 1015.6
20260506000507 16 230 3.2 6.4 0.00 0.00 0.00 72 1015.7
20260506000014 16 296 1.6 6.4 0.00 0.00 0.00 71 1015.8
20260505235508 16 281 3.2 11.3 0.00 0.00 0.00 71 1015.8
20260505235006 16 257 3.2 11.3 0.00 0.00 0.00 72 1015.8
20260505234519 16 285 3.2 9.7 0.00 0.00 0.00 72 1015.9
20260505234004 16 277 3.2 11.3 0.00 0.00 0.00 72 1015.9
20260505233508 16 335 4.8 9.7 0.00 0.00 0.00 71 1016.0
20260505233004 16 173 1.6 9.7 0.00 0.00 0.00 73 1016.1
20260505232504 16 344 3.2 9.7 0.00 0.00 0.00 72 1016.1
20260505232004 16 292 4.8 11.3 0.00 0.00 0.00 71 1016.0
20260505231512 16 240 4.8 11.3 0.00 0.00 0.00 70 1016.0
20260505231005 16 199 3.2 9.7 0.00 0.00 0.00 70 1016.0
20260505230504 16 350 0.0 4.8 0.00 0.00 0.00 70 1016.0
20260505230021 16 225 1.6 9.7 0.00 0.00 0.00 70 1016.1
20260505225509 16 278 1.6 9.7 0.00 0.00 0.00 71 1016.2
20260505225008 16 317 1.6 11.3 0.00 0.00 0.00 71 1016.3
20260505224518 16 271 1.6 11.3 0.00 0.00 0.00 72 1016.3
20260505224007 16 264 4.8 11.3 0.00 0.00 0.00 70 1016.3
20260505223510 16 61 1.6 11.3 0.00 0.00 0.00 71 1016.4
20260505223020 16 309 3.2 6.4 0.00 0.00 0.00 72 1016.4
20260505222507 16 317 3.2 11.3 0.00 0.00 0.00 70 1016.4
20260505222004 16 271 3.2 11.3 0.00 0.00 0.00 72 1016.6
20260505221504 16 286 1.6 6.4 0.00 0.00 0.00 73 1016.6
20260505221003 16 273 1.6 8.0 0.00 0.00 0.00 71 1016.6
20260505220503 15 271 3.2 9.7 0.00 0.00 0.00 73 1016.7
20260505220009 15 312 3.2 9.7 0.00 0.00 0.00 72 1016.8
20260505215508 15 286 4.8 9.7 0.00 0.00 0.00 72 1016.8
20260505215004 15 194 3.2 8.0 0.00 0.00 0.00 73 1016.8
20260505214517 15 220 3.2 9.7 0.00 0.00 0.00 73 1016.7
20260505214011 15 272 3.2 9.7 0.00 0.00 0.00 73 1016.7
20260505213504 15 217 3.2 6.4 0.00 0.00 0.00 74 1016.7
20260505213028 16 255 1.6 4.8 0.00 0.00 0.00 72 1016.8
20260505212510 16 53 1.6 6.4 0.00 0.00 0.00 73 1016.8
20260505212011 15 271 1.6 6.4 0.00 0.00 0.00 73 1016.8